WetterOnline ( https://www.wetteronline.de )

Wetter aktuell Lahnau

Aktuelles Wetter: Gießen (195m)

6-stündlich | Neueste Meldungen
Ortszeit Temperatur Wetter
Mo, 22.04. 14:00 21.5° C fast wolkenlos
Mo, 22.04. 8:00 9.1° C wolkenlos
Mo, 22.04. 2:00 11.5° C wolkenlos
So, 21.04. 20:00 19.2° C wolkenlos
So, 21.04. 14:00 21.7° C wolkenlos
So, 21.04. 8:00 7.7° C wolkenlos
So, 21.04. 2:00 11.0° C wolkenlos
Sa, 20.04. 20:00 19.3° C wolkenlos
Ortszeit Temperatur Wetter
Mo, 22.04. 14:30 22.0° C wolkenlos
Mo, 22.04. 14:10 22.1° C wolkenlos
Mo, 22.04. 14:00 21.5° C fast wolkenlos
Mo, 22.04. 13:50 21.5° C fast wolkenlos
Mo, 22.04. 13:40 21.7° C fast wolkenlos
Mo, 22.04. 13:30 20.8° C fast wolkenlos
Mo, 22.04. 13:00 20.4° C leicht bewölkt
Mo, 22.04. 12:30 20.6° C fast wolkenlos
Mo, 22.04. 12:00 20.1° C leicht bewölkt
Mo, 22.04. 11:30 19.5° C wolkenlos
Mo, 22.04. 11:00 18.5° C leicht bewölkt
Ortszeit Relative Feuchte Sichtweite
Mo, 22.04. 14:00 31% 35 km
Mo, 22.04. 8:00 71% 40 km
Mo, 22.04. 2:00 58% 40 km
So, 21.04. 20:00 35% 60 km
So, 21.04. 14:00 37% 35 km
So, 21.04. 8:00 75% 24 km
So, 21.04. 2:00 61% 35 km
Sa, 20.04. 20:00 34% 45 km
Ortszeit Relative Feuchte Sichtweite
Mo, 22.04. 14:30 34% 35 km
Mo, 22.04. 14:10 34% -
Mo, 22.04. 14:00 31% 35 km
Mo, 22.04. 13:50 31% -
Mo, 22.04. 13:40 37% -
Mo, 22.04. 13:30 35% 50 km
Mo, 22.04. 13:00 33% 50 km
Mo, 22.04. 12:30 38% 35 km
Mo, 22.04. 12:00 36% 50 km
Mo, 22.04. 11:30 44% -
Mo, 22.04. 11:00 45% >70 km
Ortszeit Niederschlagsmenge Niederschlagsart
Mo, 22.04. 14:00 0.0 l/m2 in 6 Std. -
Mo, 22.04. 8:00 0.0 l/m2 in 12 Std. -
Mo, 22.04. 2:00 0.0 l/m2 in 6 Std. -
So, 21.04. 20:00 0.0 l/m2 in 12 Std. -
So, 21.04. 14:00 0.0 l/m2 in 6 Std. -
So, 21.04. 8:00 0.0 l/m2 in 12 Std. -
So, 21.04. 2:00 0.0 l/m2 in 6 Std. -
Sa, 20.04. 20:00 0.0 l/m2 in 12 Std. -
Ortszeit Niederschlagsmenge Niederschlagsart
Mo, 22.04. 14:30 0.0 l/m2 in 1 Std. -
Mo, 22.04. 14:10 keine Meldung -
Mo, 22.04. 14:00 0.0 l/m2 in 1 Std. -
Mo, 22.04. 13:50 keine Meldung -
Mo, 22.04. 13:40 keine Meldung -
Mo, 22.04. 13:30 0.0 l/m2 in 1 Std. -
Mo, 22.04. 13:00 0.0 l/m2 in 1 Std. -
Mo, 22.04. 12:30 keine Meldung -
Mo, 22.04. 12:00 0.0 l/m2 in 1 Std. -
Mo, 22.04. 11:30 keine Meldung -
Mo, 22.04. 11:00 0.0 l/m2 in 1 Std. -
Ortszeit Stärke Spitze Richtung
km/h Bft. km/h Grad Sektor
Mo, 22.04. 14:00 22 4 40 60° NO
Mo, 22.04. 8:00 7 2 14 50° NO
Mo, 22.04. 2:00 9 2 20 10° N
So, 21.04. 20:00 11 2 26 20° N
So, 21.04. 14:00 6 1 22 20° N
So, 21.04. 8:00 6 1 13 50° NO
So, 21.04. 2:00 7 2 25 20° N
Sa, 20.04. 20:00 17 3 28 30° NO
Ortszeit Stärke Spitze Richtung
km/h Bft. km/h Grad Sektor
Mo, 22.04. 14:30 20 4 37 60° NO
Mo, 22.04. 14:10 18 3 - 50° NO
Mo, 22.04. 14:00 22 4 40 60° NO
Mo, 22.04. 13:50 22 4 - 60° NO
Mo, 22.04. 13:40 22 4 - 70° O
Mo, 22.04. 13:30 25 4 36 50° NO
Mo, 22.04. 13:00 22 4 36 60° NO
Mo, 22.04. 12:30 18 3 29 60° NO
Mo, 22.04. 12:00 18 3 25 60° NO
Mo, 22.04. 11:30 17 3 - 30° NO
Mo, 22.04. 11:00 14 3 22 30° NO
Ortszeit Untergrenze Bedeckung Gattung
total tief tief mittel hoch
Mo, 22.04. 14:00 9000 m 1/8 0/8 - - -
Mo, 22.04. 8:00 9000 m 0/8 0/8 - - -
Mo, 22.04. 2:00 - 0/8 0/8 - - -
So, 21.04. 20:00 - 0/8 0/8 - - -
So, 21.04. 14:00 - 0/8 0/8 - - -
So, 21.04. 8:00 - 0/8 0/8 - - -
So, 21.04. 2:00 - 0/8 0/8 - - -
Sa, 20.04. 20:00 - 0/8 0/8 - - -
Ortszeit Bedeckungsgrad in Achtel und Wolkenuntergrenze
Mo, 22.04. 14:30 keine Wolken
Mo, 22.04. 14:10 keine Wolken
Mo, 22.04. 14:00 1(9000m)
Mo, 22.04. 13:50 1(9000m)
Mo, 22.04. 13:40 2(9000m)
Mo, 22.04. 13:30 1(9000m)
Mo, 22.04. 13:00 4(10500m)
Mo, 22.04. 12:30 1(9000m)
Mo, 22.04. 12:00 3(9000m)
Mo, 22.04. 11:30 keine Wolken
Mo, 22.04. 11:00 7(9000m)
Ortszeit Luftdruck NN (hPa) Tendenz (hPa in 3 Std.)
Mo, 22.04. 14:00 1009 - 2,7
Mo, 22.04. 8:00 1014 - 0,9
Mo, 22.04. 2:00 1016 - 0,5
So, 21.04. 20:00 1015 - 1,5
So, 21.04. 14:00 1019 - 2,1
So, 21.04. 8:00 1024 - 0,5
So, 21.04. 2:00 1026 - 0,3
Sa, 20.04. 20:00 1025 - 0,9
Ortszeit Luftdruck NN (hPa) Tendenz (hPa in 3 Std.)
Mo, 22.04. 14:30 1008 - 2,7
Mo, 22.04. 14:10 1008 keine Meldung
Mo, 22.04. 14:00 1009 - 2,7
Mo, 22.04. 13:50 1009 keine Meldung
Mo, 22.04. 13:40 1009 keine Meldung
Mo, 22.04. 13:30 1009 - 2,4
Mo, 22.04. 13:00 1010 - 2,3
Mo, 22.04. 12:30 1010 - 2,0
Mo, 22.04. 12:00 1010 - 1,9
Mo, 22.04. 11:30 1011 keine Meldung
Mo, 22.04. 11:00 1012 - 1,1
Ortszeit Schneehöhe (cm)
Mo, 22.04. 14:00 0
Mo, 22.04. 8:00 0
Mo, 22.04. 2:00 0
So, 21.04. 20:00 0
So, 21.04. 14:00 0
So, 21.04. 8:00 0
So, 21.04. 2:00 0
Sa, 20.04. 20:00 0
Ortszeit Schneehöhe (cm)
Mo, 22.04. 14:30 0
Mo, 22.04. 14:10 0
Mo, 22.04. 14:00 0
Mo, 22.04. 13:50 0
Mo, 22.04. 13:40 0
Mo, 22.04. 13:30 0
Mo, 22.04. 13:00 0
Mo, 22.04. 12:30 0
Mo, 22.04. 12:00 0
Mo, 22.04. 11:30 0
Mo, 22.04. 11:00 0
Link zu dieser Seite / Seite empfehlen

Das Wetter in ...